Home   Weather   Township of Washington   Past weeks
Flag for USA

Past Weather in Township of Washington, Kansas, USA — Yesterday and Last 2 Weeks

Now
54 °F

Overcast.


Feels Like: 50 °F
Forecast: 72 / 51 °F
Wind: 13 mph from Southeast

Location: Hebron Municipal Airport

Current Time: Apr 6, 2020 at 3:06:29 am

Latest Report: Apr 6, 2020 at 2:15 am


Visibility: 7 mi

Pressure: 29.89 "Hg

Humidity: 77%

Dew Point: 46 °F

Location of Township of WashingtonLocation

Past Weather in Township of Washington — Graph

°F

Township of Washington Temperature Yesterday

Maximum temperature yesterday: 58 °F (at 4:15 pm)
Minimum temperature yesterday: 24 °F (at 4:15 am)
Average temperature yesterday: 44 °F

High & Low Weather Summary for the Past Weeks

 TemperatureHumidityPressure
High78 °F (Mar 25, 4:35 pm)99% (Mar 23, 6:15 am)30.28 "Hg (Mar 23, 6:15 am)
Low23 °F (Apr 3, 4:15 am)20% (Mar 30, 2:35 pm)29.38 "Hg (Mar 28, 11:15 am)
Average47 °F75%29.93 "Hg
* Reported Mar 22 1:35 am — Apr 6 1:55 am, Township of Washington. Weather by CustomWeather, © 2020

Note: Actual official high and low records may vary slightly from our data, if they occured in-between our weather recording intervals... More about our weather records

Township of Washington Weather History for the Previous 24 Hours

Scroll right to see more
 ConditionsComfort  
Time TempWeatherWind HumidityBarometerVisibility
1:55 am
Mon, Apr 6
54 °FOvercast.13 mph76%29.90 "Hg7 mi
1:35 am54 °FOvercast.13 mph75%29.90 "Hg7 mi
12:55 am54 °FOvercast.15 mph72%29.91 "Hg7 mi
12:35 am55 °FOvercast.15 mph71%29.91 "Hg7 mi
12:15 am55 °FOvercast.13 mph71%29.92 "Hg7 mi
11:55 pm
Sun, Apr 5
55 °FOvercast.13 mph69%29.91 "Hg7 mi
11:35 pm55 °FOvercast.15 mph69%29.91 "Hg5 mi
11:15 pm54 °FOvercast.13 mph68%29.91 "Hg5 mi
10:55 pm54 °FOvercast.9 mph68%29.91 "Hg4 mi
10:35 pm53 °FOvercast.6 mph69%29.92 "Hg5 mi
10:15 pm53 °FOvercast.8 mph69%29.92 "Hg7 mi
9:55 pm53 °FOvercast.7 mph68%29.92 "Hg7 mi
9:35 pm53 °FOvercast.6 mph68%29.92 "Hg7 mi
9:15 pm54 °FOvercast.6 mph66%29.92 "Hg7 mi
8:55 pm54 °FOvercast.7 mph64%29.92 "Hg7 mi
8:35 pm54 °FOvercast.9 mph63%29.92 "Hg7 mi
8:15 pm55 °FOvercast.12 mph63%29.92 "Hg10 mi
7:55 pm55 °FOvercast.10 mph61%29.92 "Hg10 mi
7:15 pm56 °FPartly sunny.15 mph60%29.92 "Hg10 mi
6:55 pm57 °FScattered clouds.15 mph56%29.92 "Hg10 mi
6:35 pm58 °FSunny.13 mph54%29.91 "Hg10 mi
6:15 pm58 °FSunny.14 mph52%29.91 "Hg10 mi
5:55 pm58 °FSunny.15 mph53%29.92 "Hg10 mi
5:35 pm58 °FSunny.13 mph53%29.93 "Hg10 mi
5:15 pm57 °FSunny.15 mph54%29.94 "Hg10 mi
4:55 pm58 °FSunny.17 mph52%29.95 "Hg10 mi
4:35 pm58 °FSunny.15 mph52%29.95 "Hg10 mi
4:15 pm58 °FScattered clouds.12 mph52%29.97 "Hg10 mi
3:55 pm58 °FScattered clouds.15 mph54%29.97 "Hg10 mi
3:35 pm57 °FScattered clouds.13 mph56%29.99 "Hg10 mi
3:15 pm56 °FScattered clouds.15 mph57%30.00 "Hg10 mi
2:35 pm54 °FOvercast.12 mph61%30.02 "Hg10 mi
2:15 pm53 °FOvercast.14 mph63%30.03 "Hg10 mi
1:55 pm53 °FOvercast.15 mph64%30.04 "Hg10 mi
1:35 pm51 °FOvercast.9 mph67%30.05 "Hg10 mi
1:15 pm50 °FOvercast.13 mph68%30.05 "Hg10 mi
12:55 pm50 °FOvercast.8 mph69%30.06 "Hg10 mi
12:35 pm49 °FOvercast.9 mph70%30.07 "Hg10 mi
12:15 pm48 °FOvercast.8 mph73%30.07 "Hg10 mi
11:55 am46 °FOvercast.10 mph77%30.08 "Hg10 mi
11:35 am46 °FOvercast.10 mph75%30.09 "Hg10 mi
11:15 am47 °FPartly sunny.14 mph72%30.09 "Hg10 mi
10:55 am47 °FScattered clouds.14 mph69%30.08 "Hg10 mi
10:35 am47 °FScattered clouds.9 mph69%30.08 "Hg10 mi
9:55 am43 °FMore clouds than sun.9 mph79%30.09 "Hg7 mi
9:35 am43 °FPartly sunny.15 mph82%30.08 "Hg5 mi
9:15 am40 °FFog.14 mph89%30.08 "Hg4 mi
8:35 am35 °FFog.5 mph93%30.07 "Hg5 mi
7:55 am31 °FIce fog.5 mph96%30.07 "Hg5 mi
7:35 am30 °FIce fog.No wind95%30.07 "Hg5 mi
7:15 am30 °FSunny.3 mph95%30.07 "Hg7 mi
6:55 am29 °FClear.5 mph96%30.07 "Hg7 mi
6:35 am31 °FClear.6 mph93%30.07 "Hg10 mi
6:15 am32 °FClear.8 mph94%30.07 "Hg10 mi
5:55 am32 °FClear.8 mph95%30.06 "Hg10 mi
5:35 am31 °FClear.7 mph94%30.06 "Hg10 mi
5:15 am29 °FClear.7 mph95%30.06 "Hg10 mi
4:55 am28 °FClear.5 mph94%30.06 "Hg10 mi
4:35 am28 °FClear.3 mph94%30.06 "Hg10 mi
4:15 am24 °FClear.5 mph94%30.06 "Hg10 mi
3:55 am27 °FClear.No wind93%30.06 "Hg10 mi
3:35 am26 °FClear.No wind93%30.07 "Hg10 mi
3:15 am27 °FClear.No wind92%30.08 "Hg10 mi
Weather by CustomWeather, © 2020

See weather overview

Advertising